Content
SEND FEEDBACK

Daily
Averages
Monthly
Summary
Canada

VANCOUVER, BRITISH COLUMBIA


Home > North America > Canada > British Columbia
Elevation: 2 meters     Latitude: 49 11N     Longitude: 123 10W

WEATHER
 
SELECT A DAY
Number of Records: 253,051;   Date Range: 5/15/97 - 10/22/14
 
SHARE

PRINT THIS DATA

[ ← Previous Day ]
WEATHER ALMANAC - 25 SEPTEMBER, 2013
[ Next Day → ]
[ °F ]   °C
Weather ElementAverageHighLow
Temperature11.5 °C15 °C (4:35 pm)10 °C (1:35 am)
Dewpoint9 °C10 °C (12:35 am)8 °C (4:55 pm)
Humidity85.5 %100 % (1:35 am)63 % (4:55 pm)
Barometer1013.9 hPa1015.9 hPa (11:35 pm)1011.2 hPa (12:35 am)
Wind Speed11.3 km/h25.9 km/h (11:35 am)
Wind Gust37 km/h (11:55 am)
Weather ElementAverage
Visibility14.5 km
Wind DirectionWSW (248 °)

Weather ElementTotal
Precipitation66.8 mm
Heating Degree Days5.8 (Base 18.3)
Growing Degree Days2.5 (Base 10)
Averaged from 70 records on 25 September, 2013
WEATHER CONDITIONS BREAKOUT
WIND DIRECTION BREAKOUT
WEATHER BY HOUR - 25 SEPTEMBER, 2013
[ °F ]   °C
Local TimeTemperatureDewpointHumidityBarometerVisibilityWind DirectionWind SpeedGust SpeedPrecipitationEventsConditions
12:35 AM11 °C10 °C94 %1011.2 hPa8 kmNNW (330°)11.1 km/hRainRain
12:55 AM11 °C10 °C94 %1011.2 hPa8 kmNNW (330°)14.8 km/hRainRain
1:15 AM11 °C10 °C94 %1011.5 hPa3.2 kmNorth (350°)9.3 km/h3.56 mmRainHeavy Rain
1:35 AM10 °C10 °C100 %1011.5 hPa4 kmNW (320°)11.1 km/h7.62 mmRainHeavy Rain
1:55 AM10 °C10 °C100 %1011.5 hPa4 kmNW (320°)11.1 km/h12.7 mmRainHeavy Rain
2:15 AM10 °C10 °C100 %1011.5 hPa1.9 kmNNW (330°)13 km/h25.9 km/h6.35 mmRainHeavy Rain
2:35 AM10 °C10 °C100 %1011.5 hPa3.2 kmWSW (240°)9.3 km/h16.26 mmRainHeavy Rain
2:55 AM10 °C10 °C100 %1011.5 hPa6.4 kmNorth20.32 mmRainRain
3:15 AM10 °C10 °C100 %1011.9 hPa9.7 kmNNW (340°)7.4 km/hRainLight Rain
3:35 AM10 °C10 °C100 %1011.9 hPa9.7 kmNNW (340°)5.6 km/hRainLight Rain
3:55 AM10 °C10 °C100 %1012.2 hPa11.3 kmCalmRainLight Rain
4:15 AM10 °C10 °C100 %1011.9 hPa16.1 kmCalmRainLight Rain
4:35 AM10 °C9 °C94 %1012.2 hPa14.5 kmNW (320°)9.3 km/hRainLight Rain
4:55 AM10 °C9 °C94 %1012.2 hPa16.1 kmNNW (330°)13 km/hRainLight Rain
5:15 AM10 °C9 °C94 %1012.2 hPa16.1 kmNNW (330°)11.1 km/hRainLight Rain
5:35 AM10 °C9 °C94 %1012.2 hPa16.1 kmNNW (330°)11.1 km/hRainLight Rain
5:55 AM10 °C9 °C94 %1012.2 hPa16.1 kmNW (320°)9.3 km/hRainLight Rain
6:15 AM11 °C9 °C88 %1012.2 hPa16.1 kmNorth (350°)14.8 km/hRainLight Rain
6:35 AM11 °C9 °C88 %1012.5 hPa16.1 kmNorth (350°)14.8 km/hOvercast
6:55 AM11 °C9 °C88 %1012.5 hPa16.1 kmNorth (350°)18.5 km/hRainLight Rain
7:15 AM11 °C9 °C88 %1012.9 hPa16.1 kmNorth (350°)20.4 km/h27.8 km/hRainLight Rain
7:35 AM11 °C9 °C88 %1012.9 hPa16.1 kmNNW (340°)14.8 km/hMostly Cloudy
7:55 AM11 °C9 °C88 %1013.2 hPa16.1 kmNorth (350°)16.7 km/hMostly Cloudy
8:15 AM11 °C9 °C88 %1013.5 hPa16.1 kmNorth (350°)13 km/hOvercast
8:35 AM11 °C9 °C88 %1013.5 hPa16.1 kmNorth (350°)16.7 km/hOvercast
8:55 AM11 °C9 °C88 %1013.9 hPa16.1 kmNorth (360°)14.8 km/hOvercast
9:15 AM11 °C9 °C88 %1014.2 hPa16.1 kmNorth (350°)20.4 km/hOvercast
9:35 AM11 °C9 °C88 %1014.2 hPa16.1 kmNorth (360°)16.7 km/hOvercast
9:55 AM11 °C9 °C88 %1014.2 hPa16.1 kmNorth (350°)20.4 km/h29.6 km/hOvercast
10:15 AM11 °C9 °C88 %1014.2 hPa16.1 kmNorth (350°)20.4 km/hOvercast
10:35 AM11 °C9 °C88 %1014.2 hPa16.1 kmNorth (350°)20.4 km/h29.6 km/hOvercast
10:55 AM11 °C9 °C88 %1014.6 hPa16.1 kmNNW (340°)22.2 km/h29.6 km/hOvercast
11:15 AM11 °C9 °C88 %1014.6 hPa16.1 kmNNW (340°)24.1 km/h33.3 km/hOvercast
11:35 AM12 °C9 °C82 %1014.6 hPa16.1 kmNNW (340°)25.9 km/h35.2 km/hMostly Cloudy
11:55 AM12 °C9 °C82 %1014.6 hPa16.1 kmNNW (340°)25.9 km/h37 km/hMostly Cloudy
12:15 PM12 °C9 °C82 %1014.6 hPa16.1 kmNNW (340°)22.2 km/h27.8 km/hClear
12:35 PM12 °C9 °C82 %1014.6 hPa16.1 kmNNW (340°)22.2 km/h31.5 km/hClear
12:55 PM12 °C9 °C82 %1014.6 hPa16.1 kmNNW (340°)22.2 km/h31.5 km/hClear
1:15 PM12 °C9 °C82 %1014.6 hPa16.1 kmNorth (350°)20.4 km/h29.6 km/hClear
1:55 PM13 °C9 °C77 %1014.6 hPa16.1 kmNorth (350°)18.5 km/h27.8 km/hClear
2:15 PM13 °C9 °C77 %1014.6 hPa16.1 kmNNW (330°)9.3 km/hClear
2:35 PM13 °C9 °C77 %1014.6 hPa16.1 kmNW (310°)9.3 km/hClear
2:55 PM13 °C9 °C77 %1014.6 hPa16.1 kmNNW (340°)13 km/hClear
3:15 PM14 °C9 °C72 %1014.6 hPa16.1 kmNNW (340°)13 km/hClear
3:35 PM14 °C9 °C72 %1014.2 hPa16.1 kmNorth (350°)16.7 km/hClear
3:55 PM14 °C9 °C72 %1014.2 hPa16.1 kmNorth (350°)5.6 km/hClear
4:15 PM14 °C9 °C72 %1014.2 hPa16.1 kmNNW (340°)9.3 km/hClear
4:35 PM15 °C9 °C67 %1014.2 hPa16.1 kmNW (320°)7.4 km/hRainLight Rain
4:55 PM15 °C8 °C63 %1014.2 hPa16.1 kmCalmClear
5:15 PM15 °C8 °C63 %1014.6 hPa16.1 kmWest (280°)5.6 km/hRainLight Rain
5:35 PM15 °C8 °C63 %1014.2 hPa16.1 kmWSW (240°)7.4 km/hClear
5:55 PM15 °C9 °C67 %1014.2 hPa16.1 kmSSW (200°)7.4 km/hRainLight Rain
6:15 PM15 °C9 °C67 %1014.2 hPa16.1 kmNorthClear
6:35 PM14 °C9 °C72 %1014.6 hPa16.1 kmCalmClear
6:55 PM13 °C9 °C77 %1014.6 hPa16.1 kmCalmClear
7:15 PM11 °C9 °C88 %1014.6 hPa16.1 kmCalmClear
7:35 PM10 °C9 °C94 %1014.6 hPa16.1 kmCalmClear
7:55 PM10 °C8 °C87 %1014.6 hPa16.1 kmCalmRainLight Rain
8:15 PM10 °C9 °C94 %1014.9 hPa16.1 kmCalmRainLight Rain
8:35 PM11 °C9 °C88 %1014.9 hPa16.1 kmNorthRainLight Rain
8:55 PM11 °C9 °C88 %1014.9 hPa16.1 kmSouth (170°)5.6 km/hRainLight Rain
9:15 PM11 °C8 °C82 %1015.2 hPa16.1 kmSouth (190°)5.6 km/hRainLight Rain
9:35 PM11 °C8 °C82 %1015.2 hPa16.1 kmCalmRainLight Rain
9:55 PM11 °C8 °C82 %1015.2 hPa16.1 kmSouth (170°)5.6 km/hRainLight Rain
10:15 PM11 °C8 °C82 %1015.6 hPa16.1 kmCalmRainLight Rain
10:35 PM11 °C8 °C82 %1015.6 hPa16.1 kmSouth (180°)7.4 km/hRainLight Rain
10:55 PM10 °C8 °C87 %1015.6 hPa16.1 kmSouth (170°)5.6 km/hRainLight Rain
11:15 PM10 °C8 °C87 %1015.6 hPa16.1 kmSouth (180°)11.1 km/hRainLight Rain
11:35 PM10 °C8 °C87 %1015.9 hPa16.1 kmSouth (190°)9.3 km/hRainLight Rain
11:55 PM10 °C8 °C87 %1015.9 hPa16.1 kmSouth (190°)7.4 km/hClear
Hourly data recorded from CZBB, located 0 kilometers away from Vancouver, British Columbia







STORIES FROM OUR PARTNERS